Regional Weather Roundup
Issued by NWS

Home | Current Version | Previous Version | Graphics & Text | Print | Product List | Glossary On
Versions: 1 2 3 4 5 6 7 8 9 10 11 12 13 14 15 16 17 18 19 20 21 22 23 24 25 26 27 28 29 30 31 32 33 34 35 36 37 38 39 40 41 42 43 44 45 46 47 48 49 50
000
ASUS45 KCYS 291310
RWRWY

WYOMING REGIONAL WEATHER ROUNDUP
NATIONAL WEATHER SERVICE CHEYENNE WY
600 AM MST MON DEC 29 2014

NOTE:  "FAIR" INDICATES FEW OR NO CLOUDS BELOW 12,000 FEET
WITH NO SIGNIFICANT WEATHER AND/OR OBSTRUCTIONS TO VISIBILITY.

WYZ001-291400-
YELLOWSTONE NATIONAL PARK

CITY           SKY/WX    TMP DP  RH WIND       PRES   REMARKS
LK YELLOWSTONE   N/A      5  -1  76 VRB3      29.98S
W YELLOWSTONE  NOT AVBL

$$
WYZ002>013-054>058-071-098>099-291400-
NORTHERN WYOMING

CITY           SKY/WX    TMP DP  RH WIND       PRES   REMARKS
JACKSON        CLOUDY     3   1  92 CALM      30.00S
CODY           CLOUDY     9   3  78 N13G18    30.24R WCI  -7
GREYBULL       CLOUDY    13   8  81 NW10      30.27R WCI   0
WORLAND        LGT SNOW  11   7  84 NW6       30.27R FOG     WCI   1
SHERIDAN       LGT SNOW   7   2  80 NW21      30.38R WCI -13
BUFFALO        CLOUDY     5   2  87 N25G36    30.25R BLWGSNOWWCI -18
GILLETTE       LGT SNOW   6   3  87 N15       30.28R FOG     WCI -12
HULETT           N/A    N/A N/A N/A MISG        N/A
NEWCASTLE      CLOUDY    14  14 100 SE5       30.23R WCI   6

$$
WYZ014>020-022>026-101>103-291400-
CENTRAL WYOMING

CITY           SKY/WX    TMP DP  RH WIND       PRES   REMARKS
BIG PINEY      LGT SNOW   0  -5  79 NW9       29.99S WCI -15
PINEDALE       LGT SNOW N/A N/A N/A CALM      29.99R
DUBOIS         NOT AVBL
LANDER         LGT SNOW  10   7  87 E5        30.14R FOG     WCI   2
RIVERTON       LGT SNOW  10   6  84 N6        30.15R FOG     WCI   0
CASPER         CLOUDY     9   3  77 N14G20    30.17R WCI  -7
DOUGLAS        LGT SNOW  14   9  80 N9        30.18R WCI   2

$$
WYZ021-027>030-104>119-291400-
SOUTHERN WYOMING

CITY           SKY/WX    TMP DP  RH WIND       PRES   REMARKS
EVANSTON       CLOUDY    13  11  92 E13       29.91F WCI  -2
FORT BRIDGER   LGT SNOW   4   1  89 NE3       29.98R
ROCK SPRINGS   CLOUDY     6   2  83 E18       30.00R WCI -13
DIXON          CLOUDY     5   0  81 SE6       29.99S WCI  -6
RAWLINS        LGT SNOW   9   4  80 NE12      30.00R WCI  -6
SARATOGA       LGT SNOW   3   1  92 CALM      29.97S
LARAMIE        CLOUDY     1  -2  87 CALM      29.96R
CHEYENNE       FLURRIES  10   6  84 N15       30.02R WCI  -7
TORRINGTON     LGT SNOW  11   5  77 N17       30.19R WCI  -6
PINE BLUFFS    FLURRIES   9   5  85 N9        30.09R WCI  -5

$$


USA.gov is the U.S. government's official web portal to all federal, state and local government web resources and services.